Tracking 29892 objects as of 21-Nov-2024
HD Live streaming from Space Station
objects crossing your sky now

COSMOS 1275 DEB

Track COSMOS 1275 DEB now!
10-day predictions


NORAD ID: 42221
Int'l Code: 1981-053UM
Perigee: 916.0 km
Apogee: 1,036.9 km
Inclination: 82.9 °
Period: 104.5 minutes
Semi major axis: 7347 km
RCS: Unknown
Launch date: June 4, 1981
Source: Commonwealth of Independent States (former USSR) (CIS)
Launch site: PLESETSK MISSILE AND SPACE COMPLEX (PKMTR)

Note: This is SATELLITE DEBRIS
Your satellite tracking list
Your tracking list is empty




NASA's NSSDC Master Catalog

Two Line Element Set (TLE):
1 42221U 81053UM  24323.76628683  .00000874  00000-0  82746-3 0  9997
2 42221  82.8963 327.4725 0082232  50.1343 310.7009 13.78471375551896
Source of the keplerian elements: AFSPC